Regional Weather Roundup
Issued by NWS

Home | Current Version | Previous Version | Text Only | Print | Product List | Glossary On
Versions: 1 2 3 4 5 6 7 8 9 10 11 12 13 14 15 16 17 18 19 20 21 22 23 24 25 26 27 28 29 30 31 32 33 34 35 36 37 38 39 40 41 42 43 44 45 46 47 48 49 50
000
ASUS43 KLMK 031210
RWRKY
KENTUCKY REGIONAL WEATHER ROUNDUP
NATIONAL WEATHER SERVICE LOUISVILLE KY
800 AM EDT MON AUG 03 2015

NOTE "FAIR" INDICATES FEW OR NO CLOUDS BELOW 12,000 FEET
WITH NO SIGNIFICANT WEATHER AND/OR OBSTRUCTIONS TO VISIBILITY.

KYZ001>023-026-027-061>063-070>075-031300-
WESTERN AND SOUTH CENTRAL KENTUCKY

CITY           SKY/WX    TMP DP  RH WIND       PRES   REMARKS
PADUCAH        SUNNY     75  70  84 SW6       29.89R
HENDERSON      SUNNY     73  66  78 SW9       29.86S
OWENSBORO      SUNNY     71  67  87 S6        29.88R
HOPKINSVILLE   SUNNY     72  65  78 SW6       29.92R
BOWLING GREEN  SUNNY     72  63  73 S3        29.92S
GLASGOW        SUNNY    N/A N/A N/A CALM      29.93S
$$

KYZ024-025-028>034-038-045-046-053-031300-
NORTH CENTRAL KENTUCKY

CITY           SKY/WX    TMP DP  RH WIND       PRES   REMARKS
LOUISVILLE/SDF MOSUNNY   74  63  68 E6        29.88R
LOUISVILLE/LOU SUNNY     73  62  68 SE5       29.90R
FORT KNOX      SUNNY     70  63  79 S6        29.89R
$$

KYZ035>037-039>044-047>052-055>060-089>105-031300-
NORTHEAST KENTUCKY

CITY           SKY/WX    TMP DP  RH WIND       PRES   REMARKS
LEXINGTON      CLOUDY    66  59  78 NE26G36   30.02R
COVINGTON      CLOUDY    64  63  96 SE10G22   29.92F
FRANKFORT      CLOUDY    67  58  72 NE21G28   29.98R
$$

KYZ054-064>069-076>088-106>120-031300-
SOUTHEAST KENTUCKY

CITY           SKY/WX    TMP DP  RH WIND       PRES   REMARKS
JACKSON        SUNNY     66  63  90 CALM      29.99R
LONDON         SUNNY     65  60  84 CALM      29.98R
SOMERSET       FOG       61  61 100 CALM      29.97R VSB<1/4
MIDDLESBORO    FOG       60  60 100 CALM      30.00R VSB 1
MONTICELLO     HVY RAIN  64  64 100 CALM      29.99R
$$



USA.gov is the U.S. government's official web portal to all federal, state and local government web resources and services.